Retour au catalogue

TRANSIT 14 DEB

LostPO
NORAD 26817·DEBRIS·🇺🇸 United States

Lancé Aug 18, 1966 depuis Vandenberg Space Force Base

Loading…

Prochains Passages (prochaines 24 heures)

TLE

PériméSource: Space-Track

Époque: Jan 30, 2025, 10:02 UTC

1 26817U 66076H   25030.41825123  .00001424  00000-0  16482-2 0  9999
2 26817  88.8255  88.8799 0039380 126.0676 234.4143 13.68143369232048

Suivez TRANSIT 14 DEB en temps réel avec AllMySat

Download on the App Store